Regional Weather Roundup
Issued by NWS

Home | Current Version | Previous Version | Text Only | Print | Product List | Glossary On
Versions: 1 2 3 4 5 6 7 8 9 10 11 12 13 14 15 16 17 18 19 20 21 22 23 24 25 26 27 28
000
ASUS45 KTFX 241610
RWRMT
MONTANA REGIONAL WEATHER ROUNDUP
NATIONAL WEATHER SERVICE GREAT FALLS MT
1000 AM MDT WED AUG 24 2016

NOTE: "FAIR" INDICATES FEW OR NO CLOUDS BELOW 12000 FEET WITH NO
SIGNIFICANT WEATHER AND/OR OBSTRUCTIONS TO VISIBILITY.

MTZ001>007-043-241700-
WEST OF THE DIVIDE

CITY           SKY/WX    TMP DP  RH WIND       PRES   REMARKS
KALISPELL      PTSUNNY   66  42  41 NE16G23   30.30S
MISSOULA       CLOUDY    64  43  46 SE9       30.31S
BUTTE          CLOUDY    50  37  61 E3        30.36S
MULLAN PASS    SUNNY     54  39  57 CALM      30.36R
DEER LODGE       N/A     55  39  54 N8        30.38S
EUREKA           N/A     61  45  55 N5        30.34S
HAMILTON         N/A     57  39  51 CALM      30.30S
LIBBY            N/A     57  45  62 CALM      30.33S
PLAINS           N/A     57  50  78 CALM      30.28S
$$

MTZ008-052>055-241700-
SOUTHWEST MONTANA

CITY           SKY/WX    TMP DP  RH WIND       PRES   REMARKS
BOZEMAN        CLOUDY    55  41  59 CALM      30.34S
DILLON         SUNNY     56  39  53 NE9       30.31F
W YELLOWSTONE  SUNNY     54  32  43 NE13      30.32S HAZE
ENNIS          SUNNY     55  39  54 N18       30.36F
THREE FORKS      N/A     58  42  55 N3        30.29S
TWIN BRIDGES     N/A     59  38  45 N17       30.26S
$$

MTZ009-010-012-014-046-048-049-054-241700-
EAST SLOPES AND CENTRAL MONTANA

CITY           SKY/WX    TMP DP  RH WIND       PRES   REMARKS
CUT BANK       PTSUNNY   56  43  61 N17       30.37R
GREAT FALLS    CLOUDY    55  45  68 N14       30.35R
MALMSTROM AFB  PTSUNNY   54  46  75 NW14      30.34S
HELENA         CLOUDY    59  40  49 N9        30.35R
CHOTEAU          N/A     57  41  54 N20G25    30.38R
CONRAD           N/A     55  49  80 NW10      30.35R
$$

MTZ011-013-016-021-045-047-050-051-241700-
NORTH CENTRAL MONTANA

CITY           SKY/WX    TMP DP  RH WIND       PRES   REMARKS
HAVRE          CLOUDY    58  47  66 NW13      30.28R
LEWISTOWN      LGT RAIN  49  45  86 N7        30.31R
N BAR RANCH    CLOUDY    52  46  82 NW14G22   30.29R
CHINOOK          N/A     57  46  67 W14G23    30.24R
$$

MTZ017>020-022>027-061-062-241700-
NORTHEAST MONTANA

CITY           SKY/WX    TMP DP  RH WIND       PRES   REMARKS
GLASGOW        CLOUDY    56  44  64 W29G37    30.13R
JORDAN           N/A     61  42  49 NW22G33   30.18R
SIDNEY         CLOUDY    62  47  57 W18G24    30.06R
WOLF POINT     CLOUDY    60  46  59 W25G33    30.10R
POPLAR           N/A     59  46  63 W23G29    30.07R
SCOBEY           N/A     55  45  69 W21       30.04R
$$

MTZ028>42-056>058-241700-
SOUTHCENTRAL AND SOUTHEAST MONTANA

CITY           SKY/WX    TMP DP  RH WIND       PRES   REMARKS
BAKER          MOSUNNY   62  45  53 W29G37    30.14R
BILLINGS       MOSUNNY   63  43  48 N10G18    30.27R
LIVINGSTON     PTSUNNY   60  40  47 NW14      30.31S
MILES CITY     CLOUDY    64  46  52 NW17G24   30.18R
EKALAKA          N/A     60  45  57 W20       30.14R
FORSYTH          N/A     63  46  55 W13G21    30.20R
LAUREL           N/A     63  42  46 NW3       30.24R
ROUNDUP          N/A     63  42  46 W13       30.15R
$$

REGIONAL REPORTS...DAKOTAS

CITY           SKY/WX    TMP DP  RH WIND       PRES   REMARKS
WILLISTON      MOSUNNY   63  46  54 W24G31    30.01R
MINOT          PTSUNNY   64  49  57 W22G31    29.92S
DICKINSON      PTSUNNY   63  44  50 W28G37    30.04R
CROSBY         CLOUDY    55  52  88 W23G29    29.98R
BISMARCK       MOSUNNY   68  51  54 W16G26    30.02R
GRAND FORKS    MOSUNNY   70  54  56 W20       29.85R
FARGO          SUNNY     71  53  52 W18       29.91R
BUFFALO SD       N/A     65  46  50 W25G31    30.10R
RAPID CITY     SUNNY     66  46  48 NW16G22   30.20R
$$

REGIONAL REPORTS...WYOMING/IDAHO/WASHINGTON

CITY           SKY/WX    TMP DP  RH WIND       PRES   REMARKS
GILLETTE       SUNNY     59  45  59 N12       30.26S
SHERIDAN       SUNNY     63  44  50 NW10      30.26S
BUFFALO WY     SUNNY     59  42  53 N13       30.29S
CODY           SUNNY     55  43  62 NE9       30.31S
YELLOWSTONE LA   N/A     53  31  42 VRB6      30.35S
IDAHO FALLS    MOSUNNY   58  32  37 NE8       30.21F
SALMON         SUNNY     55  36  47 CALM      30.27S
BOISE          SUNNY     63  40  42 VRB3      30.17S
SPOKANE        MOSUNNY   64  46  52 NE8       30.25R
$$

REGIONAL REPORTS...ALBERTA

CITY           SKY/WX    TMP DP  RH WIND       PRES   REMARKS
EDMONTON       MOSUNNY   61  54  77 W7        30.28S
CALGARY        MOSUNNY   61  43  51 NW10      30.35S
LETHBRIDGE     MOSUNNY   57  45  62 W15       30.35S
WATERTON GATE    N/A     57  45  62 NE5         N/A
CARDSTON         N/A     55  39  54 N8          N/A
MILK RIVER       N/A     57  45  62 NW13G18     N/A
ONEFOUR          N/A     55  45  67 NW20G26     N/A
$$

REGIONAL REPORTS...SASKATCHEWAN

CITY           SKY/WX    TMP DP  RH WIND       PRES   REMARKS
SWIFT CURRENT  LGT RAIN  48  48 100 N17G24    30.13R FOG
REGINA         CLOUDY    54  52  94 NW20G26   29.94R
SASKATOON      LGT RAIN  55  54  94 N15       30.11R
CYPRESS HILLS    N/A     45  43  93 N16G30      N/A
VAL MARIE        N/A     54  45  71 NW23G32     N/A
ROCKGLEN         N/A     50  48  93 NW15G24     N/A
$$




USA.gov is the U.S. government's official web portal to all federal, state and local government web resources and services.